TimeEST,TemperatureF,Dew PointF,Humidity,Sea Level PressureIn,VisibilityMPH,Wind Direction,Wind SpeedMPH,Gust SpeedMPH,PrecipitationIn,Events,Conditions,WindDirDegrees,DateUTC
12:02 AM,68.0,66.2,94,30.07,7.0,NW,4.6,-,N/A,,Mostly Cloudy,320,2012-12-13 05:02:00
12:14 AM,68.0,66.2,94,30.07,7.0,NNW,5.8,-,N/A,,Scattered Clouds,330,2012-12-13 05:14:00
12:53 AM,68.0,66.0,93,30.07,10.0,NNW,9.2,-,N/A,,Scattered Clouds,330,2012-12-13 05:53:00
1:18 AM,68.0,66.2,94,30.06,10.0,NW,6.9,-,N/A,,Mostly Cloudy,320,2012-12-13 06:18:00
1:53 AM,66.9,64.0,90,30.06,10.0,NNW,10.4,-,N/A,,Scattered Clouds,330,2012-12-13 06:53:00
2:15 AM,66.2,64.4,94,30.06,10.0,NNW,6.9,-,N/A,,Mostly Cloudy,330,2012-12-13 07:15:00
2:53 AM,66.0,63.0,90,30.06,10.0,NNW,9.2,-,N/A,,Mostly Cloudy,330,2012-12-13 07:53:00
3:22 AM,66.2,62.6,88,30.06,10.0,NNW,8.1,-,N/A,,Scattered Clouds,330,2012-12-13 08:22:00
3:35 AM,66.2,62.6,88,30.05,10.0,North,5.8,-,N/A,,Mostly Cloudy,350,2012-12-13 08:35:00
3:53 AM,66.0,63.0,90,30.06,10.0,NNW,4.6,-,N/A,,Mostly Cloudy,340,2012-12-13 08:53:00
4:53 AM,66.0,62.1,87,30.07,10.0,North,10.4,-,N/A,,Overcast,350,2012-12-13 09:53:00
5:06 AM,66.2,62.6,88,30.08,10.0,NNW,8.1,-,N/A,,Overcast,340,2012-12-13 10:06:00
5:22 AM,66.2,62.6,88,30.09,10.0,NNW,10.4,-,N/A,,Overcast,330,2012-12-13 10:22:00
5:53 AM,64.9,61.0,87,30.10,10.0,NNW,12.7,17.3,N/A,,Overcast,340,2012-12-13 10:53:00
6:53 AM,64.9,61.0,87,30.11,10.0,North,8.1,-,N/A,,Overcast,360,2012-12-13 11:53:00
7:02 AM,64.4,60.8,88,30.11,10.0,North,6.9,-,N/A,,Overcast,360,2012-12-13 12:02:00
7:53 AM,64.9,60.1,84,30.12,10.0,NNW,11.5,-,N/A,,Mostly Cloudy,340,2012-12-13 12:53:00
8:53 AM,66.9,60.1,79,30.14,10.0,North,10.4,18.4,N/A,,Scattered Clouds,360,2012-12-13 13:53:00
9:53 AM,66.9,57.9,73,30.16,10.0,North,10.4,-,N/A,,Partly Cloudy,350,2012-12-13 14:53:00
10:53 AM,68.0,57.9,70,30.16,10.0,North,15.0,-,N/A,,Partly Cloudy,360,2012-12-13 15:53:00
11:09 AM,71.6,57.2,60,30.16,10.0,North,12.7,-,N/A,,Mostly Cloudy,350,2012-12-13 16:09:00
11:53 AM,72.0,55.9,57,30.15,10.0,NNE,9.2,-,N/A,,Mostly Cloudy,20,2012-12-13 16:53:00
12:00 PM,71.6,55.4,57,30.15,10.0,NNE,9.2,-,N/A,,Mostly Cloudy,20,2012-12-13 17:00:00
12:53 PM,71.1,55.9,59,30.14,10.0,North,13.8,18.4,N/A,,Mostly Cloudy,360,2012-12-13 17:53:00
1:53 PM,73.0,54.0,51,30.12,10.0,NNE,8.1,16.1,N/A,,Clear,20,2012-12-13 18:53:00
2:53 PM,72.0,54.0,53,30.10,10.0,NNE,11.5,-,N/A,,Clear,30,2012-12-13 19:53:00
3:53 PM,69.1,55.0,61,30.10,10.0,NE,10.4,-,N/A,,Scattered Clouds,50,2012-12-13 20:53:00
4:53 PM,66.0,55.9,70,30.11,10.0,NE,12.7,-,N/A,,Mostly Cloudy,50,2012-12-13 21:53:00
8:53 PM,60.1,54.0,80,30.17,10.0,NNE,8.1,-,N/A,,Mostly Cloudy,30,2012-12-14 01:53:00
9:37 PM,59.0,53.6,82,30.18,10.0,NNE,10.4,20.7,N/A,,Overcast,30,2012-12-14 02:37:00
9:53 PM,59.0,53.1,81,30.18,10.0,NNE,11.5,17.3,N/A,,Overcast,20,2012-12-14 02:53:00
10:53 PM,57.9,53.1,84,30.18,10.0,NNE,8.1,-,N/A,,Overcast,30,2012-12-14 03:53:00
11:26 PM,57.2,51.8,82,30.18,10.0,NE,9.2,19.6,N/A,,Overcast,40,2012-12-14 04:26:00
11:53 PM,57.0,52.0,83,30.18,10.0,NE,10.4,-,N/A,,Overcast,50,2012-12-14 04:53:00